Time,TemperatureF,DewpointF,PressureIn,WindDirection,WindDirectionDegrees,WindSpeedMPH,WindSpeedGustMPH,Humidity,HourlyPrecipIn,Conditions,Clouds,dailyrainin,SoftwareType,DateUTC
2013-04-02 00:00:00,40.5,19.1,30.04,NNW,338,2.9,4.7,42,0.00,,,0.00,WUHU216HW,2013-04-02 04:00:00,
2013-04-02 00:05:00,40.3,18.9,30.05,North,0,2.9,5.8,42,0.00,,,0.00,WUHU216HW,2013-04-02 04:05:00,
2013-04-02 00:10:00,40.1,18.8,30.05,NNW,338,1.6,5.8,42,0.00,,,0.00,WUHU216HW,2013-04-02 04:10:00,
2013-04-02 00:15:00,40.0,16.9,30.05,North,0,6.9,6.9,39,0.00,,,0.00,WUHU216HW,2013-04-02 04:15:00,
2013-04-02 00:20:00,39.8,17.4,30.06,NNW,338,2.9,6.9,40,0.00,,,0.00,WUHU216HW,2013-04-02 04:20:00,
2013-04-02 00:25:00,39.6,17.3,30.06,NNW,338,3.1,5.8,40,0.00,,,0.00,WUHU216HW,2013-04-02 04:25:00,
2013-04-02 00:30:00,39.2,17.5,30.06,NNW,338,2.5,3.6,41,0.00,,,0.00,WUHU216HW,2013-04-02 04:30:00,
2013-04-02 00:35:00,39.2,17.5,30.06,North,0,0.4,2.7,41,0.00,,,0.00,WUHU216HW,2013-04-02 04:35:00,
2013-04-02 00:40:00,39.1,17.3,30.06,NNW,338,1.6,2.7,41,0.00,,,0.00,WUHU216HW,2013-04-02 04:40:00,
2013-04-02 00:45:00,38.7,17.5,30.07,NNW,338,0.7,2.5,42,0.00,,,0.00,WUHU216HW,2013-04-02 04:45:00,
2013-04-02 00:50:00,38.5,17.3,30.07,NNW,338,0.9,2.7,42,0.00,,,0.00,WUHU216HW,2013-04-02 04:50:00,
2013-04-02 00:55:00,38.3,17.6,30.07,NNW,338,1.6,2.7,43,0.00,,,0.00,WUHU216HW,2013-04-02 04:55:00,
2013-04-02 01:00:00,38.2,17.6,30.07,NW,315,3.6,3.6,43,0.00,,,0.00,WUHU216HW,2013-04-02 05:00:00,
2013-04-02 01:05:00,38.0,17.4,30.07,NNW,338,6.5,6.5,43,0.00,,,0.00,WUHU216HW,2013-04-02 05:05:00,
2013-04-02 01:10:00,37.8,17.2,30.07,NW,315,1.8,6.5,43,0.00,,,0.00,WUHU216HW,2013-04-02 05:10:00,
2013-04-02 01:15:00,37.8,17.2,30.08,NNW,338,1.1,3.8,43,0.00,,,0.00,WUHU216HW,2013-04-02 05:15:00,
2013-04-02 01:20:00,37.8,17.2,30.08,NNW,338,1.1,3.4,43,0.00,,,0.00,WUHU216HW,2013-04-02 05:20:00,
2013-04-02 01:25:00,37.6,17.0,30.08,NNW,338,1.8,3.4,43,0.00,,,0.00,WUHU216HW,2013-04-02 05:25:00,
2013-04-02 01:30:00,37.4,16.4,30.08,North,0,3.6,4.7,42,0.00,,,0.00,WUHU216HW,2013-04-02 05:30:00,
2013-04-02 01:35:00,37.4,16.4,30.08,NNW,338,1.8,4.7,42,0.00,,,0.00,WUHU216HW,2013-04-02 05:35:00,
2013-04-02 01:40:00,37.3,16.8,30.08,NW,315,1.1,2.5,43,0.00,,,0.00,WUHU216HW,2013-04-02 05:40:00,
2013-04-02 01:45:00,37.1,16.6,30.08,NW,315,1.6,2.2,43,0.00,,,0.00,WUHU216HW,2013-04-02 05:45:00,
2013-04-02 01:50:00,36.9,16.4,30.09,NW,315,1.3,1.6,43,0.00,,,0.00,WUHU216HW,2013-04-02 05:50:00,
2013-04-02 01:55:00,36.7,16.2,30.09,NW,315,1.3,1.8,43,0.00,,,0.00,WUHU216HW,2013-04-02 05:55:00,
2013-04-02 02:00:00,36.7,16.7,30.09,West,270,0.9,1.8,44,0.00,,,0.00,WUHU216HW,2013-04-02 06:00:00,
2013-04-02 02:05:00,36.4,16.4,30.09,West,270,1.1,1.1,44,0.00,,,0.00,WUHU216HW,2013-04-02 06:05:00,
2013-04-02 02:10:00,36.2,16.3,30.09,NW,315,1.1,1.1,44,0.00,,,0.00,WUHU216HW,2013-04-02 06:10:00,
2013-04-02 02:15:00,36.0,16.7,30.09,NW,315,1.3,1.8,45,0.00,,,0.00,WUHU216HW,2013-04-02 06:15:00,
2013-04-02 02:20:00,35.8,15.9,30.09,NW,315,0.7,1.8,44,0.00,,,0.00,WUHU216HW,2013-04-02 06:20:00,
2013-04-02 02:25:00,35.8,15.9,30.08,NW,315,0.7,1.8,44,0.00,,,0.00,WUHU216HW,2013-04-02 06:25:00,
2013-04-02 02:30:00,35.6,15.8,30.08,NNW,338,0.2,2.9,44,0.00,,,0.00,WUHU216HW,2013-04-02 06:30:00,
2013-04-02 02:35:00,35.6,16.3,30.08,WNW,293,1.1,2.9,45,0.00,,,0.00,WUHU216HW,2013-04-02 06:35:00,
2013-04-02 02:40:00,35.5,16.1,30.08,WNW,293,0.9,1.8,45,0.00,,,0.00,WUHU216HW,2013-04-02 06:40:00,
2013-04-02 02:46:00,35.5,16.1,30.08,NW,315,1.6,1.8,45,0.00,,,0.00,WUHU216HW,2013-04-02 06:46:00,
2013-04-02 02:51:00,35.3,15.9,30.08,NW,315,0.7,2.2,45,0.00,,,0.00,WUHU216HW,2013-04-02 06:51:00,
2013-04-02 02:56:00,35.1,15.8,30.08,NNW,338,1.6,2.2,45,0.00,,,0.00,WUHU216HW,2013-04-02 06:56:00,
2013-04-02 03:01:00,34.9,16.1,30.08,WNW,293,1.1,1.8,46,0.00,,,0.00,WUHU216HW,2013-04-02 07:01:00,
2013-04-02 03:06:00,34.7,15.9,30.08,NW,315,1.1,1.8,46,0.00,,,0.00,WUHU216HW,2013-04-02 07:06:00,
2013-04-02 03:11:00,34.6,15.8,30.08,NNW,338,2.5,2.5,46,0.00,,,0.00,WUHU216HW,2013-04-02 07:11:00,
2013-04-02 03:17:00,34.6,15.8,30.08,NW,315,1.1,2.5,46,0.00,,,0.00,WUHU216HW,2013-04-02 07:17:00,
2013-04-02 03:21:00,34.4,16.1,30.08,NW,315,0.9,1.6,47,0.00,,,0.00,WUHU216HW,2013-04-02 07:21:00,
2013-04-02 03:27:00,34.2,15.9,30.08,WNW,293,1.1,1.6,47,0.00,,,0.00,WUHU216HW,2013-04-02 07:27:00,
2013-04-02 03:31:00,34.2,15.9,30.08,NW,315,0.4,1.1,47,0.00,,,0.00,WUHU216HW,2013-04-02 07:31:00,
2013-04-02 03:36:00,34.2,15.9,30.08,NW,315,0.4,1.1,47,0.00,,,0.00,WUHU216HW,2013-04-02 07:36:00,
2013-04-02 03:42:00,34.0,16.3,30.08,NW,315,0.0,0.7,48,0.00,,,0.00,WUHU216HW,2013-04-02 07:42:00,
2013-04-02 03:47:00,33.8,16.1,30.08,NW,315,0.0,0.4,48,0.00,,,0.00,WUHU216HW,2013-04-02 07:47:00,
2013-04-02 03:52:00,33.8,16.1,30.08,NW,315,0.0,0.4,48,0.00,,,0.00,WUHU216HW,2013-04-02 07:52:00,
2013-04-02 03:57:00,33.7,15.9,30.08,NW,315,0.0,0.4,48,0.00,,,0.00,WUHU216HW,2013-04-02 07:57:00,
2013-04-02 04:02:00,33.5,15.8,30.08,WNW,293,0.4,0.9,48,0.00,,,0.00,WUHU216HW,2013-04-02 08:02:00,
2013-04-02 04:07:00,33.1,15.5,30.08,WNW,293,0.2,0.9,48,0.00,,,0.00,WUHU216HW,2013-04-02 08:07:00,
2013-04-02 04:12:00,32.9,15.8,30.08,WNW,293,0.0,0.4,49,0.00,,,0.00,WUHU216HW,2013-04-02 08:12:00,
2013-04-02 04:17:00,32.8,15.7,30.08,WNW,293,0.0,0.4,49,0.00,,,0.00,WUHU216HW,2013-04-02 08:17:00,
2013-04-02 04:22:00,32.8,15.7,30.08,WNW,293,0.2,0.4,49,0.00,,,0.00,WUHU216HW,2013-04-02 08:22:00,
2013-04-02 04:27:00,32.6,15.9,30.08,WNW,293,0.2,0.2,50,0.00,,,0.00,WUHU216HW,2013-04-02 08:27:00,
2013-04-02 04:32:00,32.4,15.9,30.08,WNW,293,0.0,0.2,50,0.00,,,0.00,WUHU216HW,2013-04-02 08:32:00,
2013-04-02 04:37:00,32.4,15.9,30.09,WNW,293,0.0,0.0,50,0.00,,,0.00,WUHU216HW,2013-04-02 08:37:00,
2013-04-02 04:42:00,32.4,15.9,30.08,WNW,293,0.0,0.0,50,0.00,,,0.00,WUHU216HW,2013-04-02 08:42:00,
2013-04-02 04:47:00,32.2,16.1,30.09,WNW,293,0.0,0.0,51,0.00,,,0.00,WUHU216HW,2013-04-02 08:47:00,
2013-04-02 04:52:00,32.0,15.9,30.09,WNW,293,0.0,0.0,51,0.00,,,0.00,WUHU216HW,2013-04-02 08:52:00,
2013-04-02 04:57:00,32.0,16.4,30.09,WNW,293,0.0,0.0,52,0.00,,,0.00,WUHU216HW,2013-04-02 08:57:00,
2013-04-02 05:02:00,32.0,16.4,30.09,WNW,293,0.0,0.0,52,0.00,,,0.00,WUHU216HW,2013-04-02 09:02:00,
2013-04-02 05:07:00,32.0,16.4,30.09,WNW,293,0.0,0.0,52,0.00,,,0.00,WUHU216HW,2013-04-02 09:07:00,
2013-04-02 05:12:00,31.9,16.2,30.09,WNW,293,0.0,0.2,52,0.00,,,0.00,WUHU216HW,2013-04-02 09:12:00,
2013-04-02 05:17:00,31.7,16.0,30.10,WNW,293,0.0,0.2,52,0.00,,,0.00,WUHU216HW,2013-04-02 09:17:00,
2013-04-02 05:22:00,31.5,16.3,30.10,WNW,293,0.0,0.0,53,0.00,,,0.00,WUHU216HW,2013-04-02 09:22:00,
2013-04-02 05:28:00,31.3,16.1,30.10,WNW,293,0.2,0.2,53,0.00,,,0.00,WUHU216HW,2013-04-02 09:28:00,
2013-04-02 05:33:00,31.3,16.1,30.10,WNW,293,0.0,0.4,53,0.00,,,0.00,WUHU216HW,2013-04-02 09:33:00,
2013-04-02 05:38:00,31.0,16.2,30.10,WSW,248,1.1,1.1,54,0.00,,,0.00,WUHU216HW,2013-04-02 09:38:00,
2013-04-02 05:43:00,31.0,16.2,30.10,West,270,0.2,1.1,54,0.00,,,0.00,WUHU216HW,2013-04-02 09:43:00,
2013-04-02 05:48:00,31.1,16.4,30.11,West,270,1.3,1.3,54,0.00,,,0.00,WUHU216HW,2013-04-02 09:48:00,
2013-04-02 05:53:00,31.1,15.9,30.11,WNW,293,0.4,1.8,53,0.00,,,0.00,WUHU216HW,2013-04-02 09:53:00,
2013-04-02 05:58:00,31.3,16.1,30.11,NW,315,2.5,2.5,53,0.00,,,0.00,WUHU216HW,2013-04-02 09:58:00,
2013-04-02 06:03:00,31.5,16.3,30.11,West,270,1.1,2.5,53,0.00,,,0.00,WUHU216HW,2013-04-02 10:03:00,
2013-04-02 06:08:00,31.3,16.1,30.11,West,270,0.7,1.6,53,0.00,,,0.00,WUHU216HW,2013-04-02 10:08:00,
2013-04-02 06:13:00,31.3,16.1,30.11,NW,315,1.1,1.6,53,0.00,,,0.00,WUHU216HW,2013-04-02 10:13:00,
2013-04-02 06:18:00,31.5,16.3,30.11,NW,315,0.4,1.6,53,0.00,,,0.00,WUHU216HW,2013-04-02 10:18:00,
2013-04-02 06:23:00,31.5,16.3,30.12,West,270,0.7,1.6,53,0.00,,,0.00,WUHU216HW,2013-04-02 10:23:00,
2013-04-02 06:28:00,31.5,15.8,30.11,WNW,293,0.4,1.1,52,0.00,,,0.00,WUHU216HW,2013-04-02 10:28:00,
2013-04-02 06:33:00,31.3,15.7,30.12,West,270,0.0,1.1,52,0.00,,,0.00,WUHU216HW,2013-04-02 10:33:00,
2013-04-02 06:38:00,31.3,15.7,30.12,West,270,0.4,1.1,52,0.00,,,0.00,WUHU216HW,2013-04-02 10:38:00,
2013-04-02 06:43:00,31.1,15.5,30.12,West,270,1.1,1.1,52,0.00,,,0.00,WUHU216HW,2013-04-02 10:43:00,
2013-04-02 06:48:00,31.1,15.9,30.13,West,270,1.1,1.1,53,0.00,,,0.00,WUHU216HW,2013-04-02 10:48:00,
2013-04-02 06:53:00,31.0,15.8,30.13,NW,315,0.9,1.3,53,0.00,,,0.00,WUHU216HW,2013-04-02 10:53:00,
2013-04-02 06:58:00,31.1,15.9,30.13,NW,315,0.4,1.3,53,0.00,,,0.00,WUHU216HW,2013-04-02 10:58:00,
2013-04-02 07:03:00,31.3,16.1,30.13,NW,315,0.4,0.9,53,0.00,,,0.00,WUHU216HW,2013-04-02 11:03:00,
2013-04-02 07:08:00,31.3,16.1,30.13,NW,315,0.4,0.7,53,0.00,,,0.00,WUHU216HW,2013-04-02 11:08:00,
2013-04-02 07:13:00,31.5,16.3,30.14,NW,315,1.1,1.1,53,0.00,,,0.00,WUHU216HW,2013-04-02 11:13:00,
2013-04-02 07:18:00,31.7,16.5,30.14,West,270,1.1,1.1,53,0.00,,,0.00,WUHU216HW,2013-04-02 11:18:00,
2013-04-02 07:23:00,31.9,16.7,30.15,West,270,1.1,1.1,53,0.00,,,0.00,WUHU216HW,2013-04-02 11:23:00,
2013-04-02 07:28:00,32.0,16.7,30.15,NW,315,0.2,1.1,53,0.00,,,0.00,WUHU216HW,2013-04-02 11:28:00,
2013-04-02 07:33:00,32.4,17.6,30.15,NW,315,0.4,1.6,54,0.00,,,0.00,WUHU216HW,2013-04-02 11:33:00,
2013-04-02 07:38:00,32.8,17.8,30.15,NW,315,1.1,1.6,54,0.00,,,0.00,WUHU216HW,2013-04-02 11:38:00,
2013-04-02 07:43:00,33.1,17.7,30.15,WNW,293,0.4,1.1,53,0.00,,,0.00,WUHU216HW,2013-04-02 11:43:00,
2013-04-02 07:48:00,33.3,17.9,30.15,West,270,0.7,1.1,53,0.00,,,0.00,WUHU216HW,2013-04-02 11:48:00,
2013-04-02 07:53:00,33.5,18.1,30.15,West,270,1.1,1.1,53,0.00,,,0.00,WUHU216HW,2013-04-02 11:53:00,
2013-04-02 07:58:00,33.7,17.8,30.15,West,270,0.4,1.1,52,0.00,,,0.00,WUHU216HW,2013-04-02 11:58:00,
2013-04-02 08:03:00,34.2,18.4,30.16,West,270,0.9,1.6,52,0.00,,,0.00,WUHU216HW,2013-04-02 12:03:00,
2013-04-02 08:08:00,34.4,18.1,30.16,WSW,248,1.8,2.0,51,0.00,,,0.00,WUHU216HW,2013-04-02 12:08:00,
2013-04-02 08:13:00,34.7,18.5,30.16,NW,315,1.1,2.0,51,0.00,,,0.00,WUHU216HW,2013-04-02 12:13:00,
2013-04-02 08:18:00,35.1,17.8,30.16,WSW,248,0.9,1.6,49,0.00,,,0.00,WUHU216HW,2013-04-02 12:18:00,
2013-04-02 08:23:00,35.5,17.6,30.16,NW,315,4.9,4.9,48,0.00,,,0.00,WUHU216HW,2013-04-02 12:23:00,
2013-04-02 08:29:00,35.8,18.0,30.16,NW,315,1.8,4.9,48,0.00,,,0.00,WUHU216HW,2013-04-02 12:29:00,
2013-04-02 08:34:00,36.4,18.6,30.16,WNW,293,5.4,5.4,48,0.00,,,0.00,WUHU216HW,2013-04-02 12:34:00,
2013-04-02 08:39:00,36.5,18.2,30.16,WSW,248,0.7,5.4,47,0.00,,,0.00,WUHU216HW,2013-04-02 12:39:00,
2013-04-02 08:44:00,36.7,17.3,30.17,NW,315,4.0,4.3,45,0.00,,,0.00,WUHU216HW,2013-04-02 12:44:00,
2013-04-02 08:49:00,37.1,18.1,30.17,West,270,2.5,4.0,46,0.00,,,0.00,WUHU216HW,2013-04-02 12:49:00,
2013-04-02 08:54:00,37.4,17.9,30.17,North,0,1.1,5.4,45,0.00,,,0.00,WUHU216HW,2013-04-02 12:54:00,
2013-04-02 08:59:00,37.8,18.3,30.16,NW,315,3.6,5.4,45,0.00,,,0.00,WUHU216HW,2013-04-02 12:59:00,
2013-04-02 09:04:00,37.8,18.3,30.16,WNW,293,1.6,6.0,45,0.00,,,0.00,WUHU216HW,2013-04-02 13:04:00,
2013-04-02 09:09:00,38.0,18.4,30.16,NNW,338,4.7,6.0,45,0.00,,,0.00,WUHU216HW,2013-04-02 13:09:00,
2013-04-02 09:14:00,38.3,18.7,30.17,West,270,1.3,5.4,45,0.00,,,0.00,WUHU216HW,2013-04-02 13:14:00,
2013-04-02 09:19:00,38.7,19.1,30.16,NNW,338,5.4,5.4,45,0.00,,,0.00,WUHU216HW,2013-04-02 13:19:00,
2013-04-02 09:24:00,38.9,18.7,30.16,NNW,338,4.0,7.8,44,0.00,,,0.00,WUHU216HW,2013-04-02 13:24:00,
2013-04-02 09:29:00,38.9,18.2,30.16,NW,315,4.3,7.8,43,0.00,,,0.00,WUHU216HW,2013-04-02 13:29:00,
2013-04-02 09:34:00,38.9,18.2,30.17,NNW,338,3.6,6.9,43,0.00,,,0.00,WUHU216HW,2013-04-02 13:34:00,
2013-04-02 09:39:00,39.1,17.8,30.16,NW,315,6.9,11.4,42,0.00,,,0.00,WUHU216HW,2013-04-02 13:39:00,
2013-04-02 09:44:00,39.1,17.8,30.16,NW,315,7.6,11.4,42,0.00,,,0.00,WUHU216HW,2013-04-02 13:44:00,
2013-04-02 09:49:00,39.1,17.3,30.16,NW,315,4.0,8.5,41,0.00,,,0.00,WUHU216HW,2013-04-02 13:49:00,
2013-04-02 09:54:00,39.2,18.5,30.16,NNW,338,4.5,7.8,43,0.00,,,0.00,WUHU216HW,2013-04-02 13:54:00,
2013-04-02 09:59:00,39.6,18.3,30.16,NW,315,6.3,11.4,42,0.00,,,0.00,WUHU216HW,2013-04-02 13:59:00,
2013-04-02 10:04:00,39.4,17.1,30.16,WNW,293,5.4,11.4,40,0.00,,,0.00,WUHU216HW,2013-04-02 14:04:00,
2013-04-02 10:09:00,39.6,17.3,30.16,NNW,338,6.9,10.5,40,0.00,,,0.00,WUHU216HW,2013-04-02 14:09:00,
2013-04-02 10:14:00,39.8,17.4,30.16,NW,315,5.4,9.6,40,0.00,,,0.00,WUHU216HW,2013-04-02 14:14:00,
2013-04-02 10:19:00,39.8,17.4,30.16,NW,315,7.8,9.6,40,0.00,,,0.00,WUHU216HW,2013-04-02 14:19:00,
2013-04-02 10:24:00,39.8,17.4,30.16,NW,315,7.8,7.8,40,0.00,,,0.00,WUHU216HW,2013-04-02 14:24:00,
2013-04-02 10:46:00,40.7,16.9,30.16,WSW,248,5.6,5.6,38,0.00,,,0.00,WUHU216HW,2013-04-02 14:46:00,
2013-04-02 10:51:00,40.7,16.9,30.16,NW,315,4.7,5.6,38,0.00,,,0.00,WUHU216HW,2013-04-02 14:51:00,
2013-04-02 10:56:00,41.0,17.3,30.16,NW,315,10.1,10.1,38,0.00,,,0.00,WUHU216HW,2013-04-02 14:56:00,
2013-04-02 11:01:00,40.7,16.9,30.16,North,0,3.1,10.1,38,0.00,,,0.00,WUHU216HW,2013-04-02 15:01:00,
2013-04-02 11:06:00,40.9,16.5,30.16,WSW,248,6.3,7.4,37,0.00,,,0.00,WUHU216HW,2013-04-02 15:06:00,
2013-04-02 11:11:00,41.2,17.4,30.16,NW,315,2.5,7.4,38,0.00,,,0.00,WUHU216HW,2013-04-02 15:11:00,
2013-04-02 11:16:00,41.2,16.7,30.16,NW,315,4.0,6.5,37,0.00,,,0.00,WUHU216HW,2013-04-02 15:16:00,
2013-04-02 11:21:00,41.2,16.7,30.15,WNW,293,9.8,9.8,37,0.00,,,0.00,WUHU216HW,2013-04-02 15:21:00,
2013-04-02 11:26:00,41.4,17.6,30.15,WSW,248,2.9,9.8,38,0.00,,,0.00,WUHU216HW,2013-04-02 15:26:00,
2013-04-02 11:31:00,42.1,18.2,30.15,WSW,248,3.6,6.3,38,0.00,,,0.00,WUHU216HW,2013-04-02 15:31:00,
2013-04-02 11:36:00,42.3,17.7,30.15,NNW,338,5.6,8.5,37,0.00,,,0.00,WUHU216HW,2013-04-02 15:36:00,
2013-04-02 11:41:00,42.1,17.6,30.15,NW,315,8.5,8.5,37,0.00,,,0.00,WUHU216HW,2013-04-02 15:41:00,
2013-04-02 11:46:00,42.3,17.0,30.15,NNW,338,9.6,9.6,36,0.00,,,0.00,WUHU216HW,2013-04-02 15:46:00,
2013-04-02 11:51:00,41.9,16.0,30.15,NNE,23,1.8,9.6,35,0.00,,,0.00,WUHU216HW,2013-04-02 15:51:00,
2013-04-02 11:57:00,42.1,16.2,30.15,NW,315,3.8,7.6,35,0.00,,,0.00,WUHU216HW,2013-04-02 15:57:00,
2013-04-02 12:02:00,42.3,15.0,30.15,NNW,338,4.7,9.8,33,0.00,,,0.00,WUHU216HW,2013-04-02 16:02:00,
2013-04-02 12:07:00,41.8,14.6,30.15,NW,315,9.4,12.1,33,0.00,,,0.00,WUHU216HW,2013-04-02 16:07:00,
2013-04-02 12:12:00,42.1,15.0,30.15,WNW,293,4.5,12.1,33,0.00,,,0.00,WUHU216HW,2013-04-02 16:12:00,
2013-04-02 12:17:00,42.3,15.8,30.15,ESE,113,2.5,10.7,34,0.00,,,0.00,WUHU216HW,2013-04-02 16:17:00,
2013-04-02 12:22:00,42.8,16.2,30.15,WNW,293,5.4,11.2,34,0.00,,,0.00,WUHU216HW,2013-04-02 16:22:00,
2013-04-02 12:27:00,42.8,15.5,30.15,WSW,248,4.0,11.2,33,0.00,,,0.00,WUHU216HW,2013-04-02 16:27:00,
2013-04-02 12:32:00,43.0,15.7,30.14,NW,315,6.3,6.3,33,0.00,,,0.00,WUHU216HW,2013-04-02 16:32:00,
2013-04-02 12:37:00,43.4,16.0,30.14,West,270,2.7,9.2,33,0.00,,,0.00,WUHU216HW,2013-04-02 16:37:00,
2013-04-02 12:42:00,43.7,17.6,30.14,NW,315,3.4,9.2,35,0.00,,,0.00,WUHU216HW,2013-04-02 16:42:00,
2013-04-02 12:47:00,44.1,16.7,30.14,WNW,293,8.5,8.5,33,0.00,,,0.00,WUHU216HW,2013-04-02 16:47:00,
2013-04-02 12:52:00,43.6,16.1,30.14,WNW,293,4.0,8.5,33,0.00,,,0.00,WUHU216HW,2013-04-02 16:52:00,
2013-04-02 12:57:00,43.7,16.3,30.14,NNW,338,8.1,8.5,33,0.00,,,0.00,WUHU216HW,2013-04-02 16:57:00,
2013-04-02 13:02:00,43.7,16.3,30.14,WSW,248,4.5,8.1,33,0.00,,,0.00,WUHU216HW,2013-04-02 17:02:00,
2013-04-02 13:07:00,43.9,16.5,30.14,NW,315,5.4,7.6,33,0.00,,,0.00,WUHU216HW,2013-04-02 17:07:00,
2013-04-02 13:12:00,44.1,16.7,30.14,NW,315,5.4,7.2,33,0.00,,,0.00,WUHU216HW,2013-04-02 17:12:00,
2013-04-02 13:17:00,44.1,16.7,30.14,NW,315,4.7,7.2,33,0.00,,,0.00,WUHU216HW,2013-04-02 17:17:00,
2013-04-02 13:22:00,44.3,16.8,30.13,West,270,7.8,8.5,33,0.00,,,0.00,WUHU216HW,2013-04-02 17:22:00,
2013-04-02 13:27:00,44.3,16.8,30.13,WSW,248,6.9,8.5,33,0.00,,,0.00,WUHU216HW,2013-04-02 17:27:00,
2013-04-02 13:33:00,44.5,16.9,30.13,WSW,248,5.4,7.8,33,0.00,,,0.00,WUHU216HW,2013-04-02 17:33:00,
2013-04-02 13:38:00,45.0,17.5,30.13,NNW,338,6.5,6.9,33,0.00,,,0.00,WUHU216HW,2013-04-02 17:38:00,
2013-04-02 13:43:00,44.5,16.9,30.13,NNW,338,7.6,7.6,33,0.00,,,0.00,WUHU216HW,2013-04-02 17:43:00,
2013-04-02 13:48:00,44.1,17.3,30.13,West,270,6.7,8.7,34,0.00,,,0.00,WUHU216HW,2013-04-02 17:48:00,
2013-04-02 13:54:00,44.1,17.3,30.13,SW,225,7.2,9.2,34,0.00,,,0.00,WUHU216HW,2013-04-02 17:54:00,
2013-04-02 13:59:00,44.6,17.1,30.13,NW,315,6.3,9.4,33,0.00,,,0.00,WUHU216HW,2013-04-02 17:59:00,
2013-04-02 14:04:00,44.6,17.1,30.13,WNW,293,4.3,8.1,33,0.00,,,0.00,WUHU216HW,2013-04-02 18:04:00,
2013-04-02 14:09:00,44.5,16.9,30.13,West,270,7.6,8.1,33,0.00,,,0.00,WUHU216HW,2013-04-02 18:09:00,
2013-04-02 14:12:00,44.6,16.5,30.12,NW,315,3.1,3.1,32,0.00,,,0.00,WUHU216HW,2013-04-02 18:12:00,
2013-04-02 14:14:00,44.6,16.5,30.12,NW,315,3.1,8.5,32,0.00,,,0.00,WUHU216HW,2013-04-02 18:14:00,
2013-04-02 14:19:00,44.6,16.5,30.12,NW,315,3.1,8.5,32,0.00,,,0.00,WUHU216HW,2013-04-02 18:19:00,
2013-04-02 14:42:00,44.6,15.8,30.12,West,270,8.5,8.5,31,0.00,,,0.00,WUHU216HW,2013-04-02 18:42:00,
2013-04-02 14:47:00,44.8,16.7,30.12,WNW,293,4.5,8.5,32,0.00,,,0.00,WUHU216HW,2013-04-02 18:47:00,
2013-04-02 14:52:00,45.2,16.9,30.12,NNW,338,8.7,8.7,32,0.00,,,0.00,WUHU216HW,2013-04-02 18:52:00,
2013-04-02 14:57:00,45.0,16.7,30.12,WSW,248,6.9,9.2,32,0.00,,,0.00,WUHU216HW,2013-04-02 18:57:00,
2013-04-02 15:02:00,44.5,16.3,30.13,WSW,248,3.6,9.2,32,0.00,,,0.00,WUHU216HW,2013-04-02 19:02:00,
2013-04-02 15:07:00,44.3,15.5,30.12,NW,315,9.2,9.2,31,0.00,,,0.00,WUHU216HW,2013-04-02 19:07:00,
2013-04-02 15:12:00,44.3,16.1,30.12,NW,315,7.8,9.2,32,0.00,,,0.00,WUHU216HW,2013-04-02 19:12:00,
2013-04-02 15:17:00,45.0,16.1,30.12,West,270,7.6,10.5,31,0.00,,,0.00,WUHU216HW,2013-04-02 19:17:00,
2013-04-02 15:22:00,45.0,16.1,30.12,NW,315,10.3,10.5,31,0.00,,,0.00,WUHU216HW,2013-04-02 19:22:00,
2013-04-02 15:27:00,45.7,16.7,30.12,NW,315,7.2,10.3,31,0.00,,,0.00,WUHU216HW,2013-04-02 19:27:00,
2013-04-02 15:32:00,46.3,17.3,30.12,WSW,248,5.4,7.6,31,0.00,,,0.00,WUHU216HW,2013-04-02 19:32:00,
2013-04-02 15:37:00,45.9,17.6,30.12,NNW,338,6.9,7.6,32,0.00,,,0.00,WUHU216HW,2013-04-02 19:37:00,
2013-04-02 15:42:00,45.7,16.7,30.12,WNW,293,8.5,8.5,31,0.00,,,0.00,WUHU216HW,2013-04-02 19:42:00,
2013-04-02 15:48:00,45.9,16.9,30.12,West,270,3.4,8.5,31,0.00,,,0.00,WUHU216HW,2013-04-02 19:48:00,
2013-04-02 15:53:00,45.7,16.7,30.11,NW,315,8.5,8.5,31,0.00,,,0.00,WUHU216HW,2013-04-02 19:53:00,
2013-04-02 15:58:00,45.4,16.5,30.11,WSW,248,7.2,8.5,31,0.00,,,0.00,WUHU216HW,2013-04-02 19:58:00,
2013-04-02 16:03:00,45.9,16.9,30.12,NW,315,5.8,7.2,31,0.00,,,0.00,WUHU216HW,2013-04-02 20:03:00,
2013-04-02 16:08:00,46.4,17.4,30.11,WSW,248,7.8,7.8,31,0.00,,,0.00,WUHU216HW,2013-04-02 20:08:00,
2013-04-02 16:13:00,46.4,16.7,30.11,SW,225,4.0,7.8,30,0.00,,,0.00,WUHU216HW,2013-04-02 20:13:00,
2013-04-02 16:18:00,46.3,16.6,30.11,North,0,3.4,6.3,30,0.00,,,0.00,WUHU216HW,2013-04-02 20:18:00,
2013-04-02 16:23:00,46.4,15.9,30.12,NNW,338,6.5,10.7,29,0.00,,,0.00,WUHU216HW,2013-04-02 20:23:00,
2013-04-02 16:28:00,46.3,16.6,30.11,NW,315,6.5,10.7,30,0.00,,,0.00,WUHU216HW,2013-04-02 20:28:00,
2013-04-02 16:33:00,46.4,16.7,30.11,WNW,293,4.9,8.7,30,0.00,,,0.00,WUHU216HW,2013-04-02 20:33:00,
2013-04-02 16:38:00,46.6,16.0,30.12,WNW,293,4.0,6.9,29,0.00,,,0.00,WUHU216HW,2013-04-02 20:38:00,
2013-04-02 16:43:00,47.0,16.3,30.12,WNW,293,4.7,6.9,29,0.00,,,0.00,WUHU216HW,2013-04-02 20:43:00,
2013-04-02 16:48:00,47.2,16.5,30.12,NW,315,5.4,6.0,29,0.00,,,0.00,WUHU216HW,2013-04-02 20:48:00,
2013-04-02 16:53:00,47.3,16.7,30.11,NW,315,7.8,7.8,29,0.00,,,0.00,WUHU216HW,2013-04-02 20:53:00,
2013-04-02 16:58:00,47.0,15.4,30.12,NW,315,5.4,9.2,28,0.00,,,0.00,WUHU216HW,2013-04-02 20:58:00,
2013-04-02 17:03:00,46.6,16.0,30.12,WNW,293,2.5,9.2,29,0.00,,,0.00,WUHU216HW,2013-04-02 21:03:00,
2013-04-02 17:09:00,46.4,15.9,30.12,NNW,338,2.7,9.8,29,0.00,,,0.00,WUHU216HW,2013-04-02 21:09:00,
2013-04-02 17:14:00,46.1,15.5,30.12,WSW,248,4.9,7.6,29,0.00,,,0.00,WUHU216HW,2013-04-02 21:14:00,
2013-04-02 17:19:00,46.4,16.7,30.13,NW,315,6.7,7.6,30,0.00,,,0.00,WUHU216HW,2013-04-02 21:19:00,
2013-04-02 17:24:00,48.2,17.5,30.13,NW,315,6.0,6.7,29,0.00,,,0.00,WUHU216HW,2013-04-02 21:24:00,
2013-04-02 17:29:00,50.2,17.2,30.13,NW,315,5.1,6.7,27,0.00,,,0.00,WUHU216HW,2013-04-02 21:29:00,
2013-04-02 17:34:00,48.6,16.7,30.13,WSW,248,2.5,7.2,28,0.00,,,0.00,WUHU216HW,2013-04-02 21:34:00,
2013-04-02 17:39:00,47.3,15.7,30.13,WNW,293,3.6,7.2,28,0.00,,,0.00,WUHU216HW,2013-04-02 21:39:00,
2013-04-02 17:44:00,47.9,15.2,30.13,NW,315,4.9,6.5,27,0.00,,,0.00,WUHU216HW,2013-04-02 21:44:00,
2013-04-02 17:49:00,48.1,16.3,30.13,WNW,293,1.1,6.5,28,0.00,,,0.00,WUHU216HW,2013-04-02 21:49:00,
2013-04-02 17:54:00,46.8,15.2,30.13,WNW,293,6.3,11.4,28,0.00,,,0.00,WUHU216HW,2013-04-02 21:54:00,
2013-04-02 17:59:00,46.6,15.0,30.14,North,0,6.9,11.4,28,0.00,,,0.00,WUHU216HW,2013-04-02 21:59:00,
2013-04-02 18:04:00,46.8,15.2,30.14,WNW,293,5.6,7.4,28,0.00,,,0.00,WUHU216HW,2013-04-02 22:04:00,
2013-04-02 18:09:00,46.4,15.0,30.14,NW,315,7.4,9.2,28,0.00,,,0.00,WUHU216HW,2013-04-02 22:09:00,
2013-04-02 18:14:00,46.3,14.8,30.14,NW,315,6.7,9.2,28,0.00,,,0.00,WUHU216HW,2013-04-02 22:14:00,
2013-04-02 18:19:00,46.8,15.2,30.15,NNW,338,3.4,7.4,28,0.00,,,0.00,WUHU216HW,2013-04-02 22:19:00,
2013-04-02 18:24:00,47.0,15.4,30.15,West,270,4.0,6.9,28,0.00,,,0.00,WUHU216HW,2013-04-02 22:24:00,
2013-04-02 18:29:00,47.3,15.7,30.15,NW,315,6.0,6.0,28,0.00,,,0.00,WUHU216HW,2013-04-02 22:29:00,
2013-04-02 18:34:00,47.3,15.7,30.15,NW,315,4.7,9.2,28,0.00,,,0.00,WUHU216HW,2013-04-02 22:34:00,
2013-04-02 18:39:00,46.3,14.8,30.15,WSW,248,4.0,9.2,28,0.00,,,0.00,WUHU216HW,2013-04-02 22:39:00,
2013-04-02 18:43:00,45.5,15.0,30.15,NW,315,3.6,3.6,29,0.00,,,0.00,WUHU216HW,2013-04-02 22:43:00,
2013-04-02 18:44:00,45.5,15.0,30.15,NW,315,3.6,4.7,29,0.00,,,0.00,WUHU216HW,2013-04-02 22:44:00,
2013-04-02 18:49:00,45.5,15.0,30.15,NW,315,3.6,3.6,29,0.00,,,0.00,WUHU216HW,2013-04-02 22:49:00,
2013-04-02 19:00:00,44.8,14.4,30.16,NNW,338,7.2,7.2,29,0.00,,,0.00,WUHU216HW,2013-04-02 23:00:00,
2013-04-02 19:05:00,44.3,14.8,30.16,WNW,293,1.8,7.2,30,0.00,,,0.00,WUHU216HW,2013-04-02 23:05:00,
2013-04-02 19:10:00,43.9,15.1,30.16,NW,315,3.4,5.4,31,0.00,,,0.00,WUHU216HW,2013-04-02 23:10:00,
2013-04-02 19:15:00,43.6,14.1,30.16,WNW,293,2.9,5.4,30,0.00,,,0.00,WUHU216HW,2013-04-02 23:15:00,
2013-04-02 19:20:00,43.2,13.9,30.16,West,270,1.1,5.4,30,0.00,,,0.00,WUHU216HW,2013-04-02 23:20:00,
2013-04-02 19:25:00,42.8,13.5,30.16,West,270,4.5,5.1,30,0.00,,,0.00,WUHU216HW,2013-04-02 23:25:00,
2013-04-02 19:30:00,42.7,14.1,30.16,West,270,3.4,5.1,31,0.00,,,0.00,WUHU216HW,2013-04-02 23:30:00,
2013-04-02 19:35:00,42.5,13.9,30.17,West,270,3.4,4.7,31,0.00,,,0.00,WUHU216HW,2013-04-02 23:35:00,
2013-04-02 19:40:00,42.3,13.8,30.17,WNW,293,3.1,4.7,31,0.00,,,0.00,WUHU216HW,2013-04-02 23:40:00,
2013-04-02 19:45:00,42.1,13.6,30.17,WNW,293,1.8,3.1,31,0.00,,,0.00,WUHU216HW,2013-04-02 23:45:00,
2013-04-02 19:50:00,41.9,14.1,30.17,West,270,1.6,3.1,32,0.00,,,0.00,WUHU216HW,2013-04-02 23:50:00,
2013-04-02 19:55:00,41.8,14.0,30.17,West,270,4.9,4.9,32,0.00,,,0.00,WUHU216HW,2013-04-02 23:55:00,
2013-04-02 20:00:00,41.6,13.8,30.17,West,270,2.9,5.1,32,0.00,,,0.00,WUHU216HW,2013-04-03 00:00:00,
2013-04-02 20:05:00,41.4,14.3,30.18,West,270,1.6,5.1,33,0.00,,,0.00,WUHU216HW,2013-04-03 00:05:00,
2013-04-02 20:10:00,41.2,14.1,30.18,West,270,3.4,3.8,33,0.00,,,0.00,WUHU216HW,2013-04-03 00:10:00,
2013-04-02 20:15:00,41.0,14.1,30.18,WSW,248,0.7,3.8,33,0.00,,,0.00,WUHU216HW,2013-04-03 00:15:00,
2013-04-02 20:20:00,41.0,14.1,30.18,WSW,248,1.3,2.0,33,0.00,,,0.00,WUHU216HW,2013-04-03 00:20:00,
2013-04-02 20:25:00,40.7,13.7,30.18,West,270,1.1,2.0,33,0.00,,,0.00,WUHU216HW,2013-04-03 00:25:00,
2013-04-02 20:30:00,40.7,14.3,30.18,WSW,248,1.3,2.0,34,0.00,,,0.00,WUHU216HW,2013-04-03 00:30:00,
2013-04-02 20:35:00,40.5,14.9,30.19,West,270,1.8,1.8,35,0.00,,,0.00,WUHU216HW,2013-04-03 00:35:00,
2013-04-02 20:41:00,40.3,14.7,30.19,WNW,293,1.1,2.2,35,0.00,,,0.00,WUHU216HW,2013-04-03 00:41:00,
2013-04-02 20:46:00,40.3,14.7,30.19,WSW,248,2.2,2.2,35,0.00,,,0.00,WUHU216HW,2013-04-03 00:46:00,
2013-04-02 20:51:00,40.1,14.5,30.20,WSW,248,2.2,2.2,35,0.00,,,0.00,WUHU216HW,2013-04-03 00:51:00,
2013-04-02 20:57:00,40.1,14.5,30.20,West,270,1.6,2.9,35,0.00,,,0.00,WUHU216HW,2013-04-03 00:57:00,
2013-04-02 21:02:00,40.0,14.9,30.20,West,270,1.8,2.9,36,0.00,,,0.00,WUHU216HW,2013-04-03 01:02:00,
2013-04-02 21:07:00,39.8,14.9,30.20,West,270,1.1,1.8,36,0.00,,,0.00,WUHU216HW,2013-04-03 01:07:00,
2013-04-02 21:12:00,39.6,14.7,30.20,WSW,248,1.1,1.1,36,0.00,,,0.00,WUHU216HW,2013-04-03 01:12:00,
2013-04-02 21:17:00,39.6,14.7,30.21,WSW,248,1.8,1.8,36,0.00,,,0.00,WUHU216HW,2013-04-03 01:17:00,
2013-04-02 21:22:00,39.4,15.1,30.21,West,270,1.6,1.8,37,0.00,,,0.00,WUHU216HW,2013-04-03 01:22:00,
2013-04-02 21:27:00,39.4,15.1,30.21,West,270,0.7,1.6,37,0.00,,,0.00,WUHU216HW,2013-04-03 01:27:00,
2013-04-02 21:32:00,39.4,15.1,30.21,West,270,1.6,2.9,37,0.00,,,0.00,WUHU216HW,2013-04-03 01:32:00,
2013-04-02 21:37:00,39.2,14.9,30.21,WSW,248,1.1,2.9,37,0.00,,,0.00,WUHU216HW,2013-04-03 01:37:00,
2013-04-02 21:42:00,39.1,14.9,30.21,WNW,293,1.1,1.6,37,0.00,,,0.00,WUHU216HW,2013-04-03 01:42:00,
2013-04-02 21:47:00,38.9,14.7,30.22,WNW,293,1.1,1.8,37,0.00,,,0.00,WUHU216HW,2013-04-03 01:47:00,
2013-04-02 21:52:00,38.9,14.7,30.22,NW,315,1.1,1.8,37,0.00,,,0.00,WUHU216HW,2013-04-03 01:52:00,
2013-04-02 21:57:00,38.7,14.5,30.22,West,270,0.7,1.6,37,0.00,,,0.00,WUHU216HW,2013-04-03 01:57:00,
2013-04-02 22:02:00,38.5,14.9,30.22,WNW,293,1.1,2.0,38,0.00,,,0.00,WUHU216HW,2013-04-03 02:02:00,
2013-04-02 22:07:00,38.5,14.9,30.22,WNW,293,2.0,2.5,38,0.00,,,0.00,WUHU216HW,2013-04-03 02:07:00,
2013-04-02 22:13:00,38.7,15.1,30.22,NW,315,2.0,3.1,38,0.00,,,0.00,WUHU216HW,2013-04-03 02:13:00,
2013-04-02 22:18:00,38.5,14.9,30.22,WNW,293,1.6,3.1,38,0.00,,,0.00,WUHU216HW,2013-04-03 02:18:00,
2013-04-02 22:23:00,38.5,14.9,30.22,WNW,293,0.9,2.0,38,0.00,,,0.00,WUHU216HW,2013-04-03 02:23:00,
2013-04-02 22:28:00,38.5,14.9,30.22,WNW,293,1.8,2.0,38,0.00,,,0.00,WUHU216HW,2013-04-03 02:28:00,
2013-04-02 22:33:00,38.5,14.9,30.23,West,270,2.0,3.1,38,0.00,,,0.00,WUHU216HW,2013-04-03 02:33:00,
2013-04-02 22:38:00,38.5,14.9,30.23,WNW,293,0.0,3.1,38,0.00,,,0.00,WUHU216HW,2013-04-03 02:38:00,
2013-04-02 22:43:00,38.5,14.9,30.23,WSW,248,0.2,1.1,38,0.00,,,0.00,WUHU216HW,2013-04-03 02:43:00,
2013-04-02 22:48:00,38.3,14.9,30.23,WSW,248,1.6,1.6,38,0.00,,,0.00,WUHU216HW,2013-04-03 02:48:00,
2013-04-02 22:53:00,38.2,14.7,30.23,West,270,0.4,1.6,38,0.00,,,0.00,WUHU216HW,2013-04-03 02:53:00,
2013-04-02 22:58:00,37.8,14.3,30.23,WSW,248,1.1,1.3,38,0.00,,,0.00,WUHU216HW,2013-04-03 02:58:00,
2013-04-02 23:03:00,37.8,14.9,30.23,WSW,248,2.0,3.4,39,0.00,,,0.00,WUHU216HW,2013-04-03 03:03:00,
2013-04-02 23:08:00,37.8,14.9,30.23,WNW,293,2.2,3.4,39,0.00,,,0.00,WUHU216HW,2013-04-03 03:08:00,
2013-04-02 23:13:00,37.8,14.9,30.23,NNW,338,1.6,3.4,39,0.00,,,0.00,WUHU216HW,2013-04-03 03:13:00,
2013-04-02 23:18:00,37.6,14.9,30.23,WNW,293,1.1,3.4,39,0.00,,,0.00,WUHU216HW,2013-04-03 03:18:00,
2013-04-02 23:23:00,37.6,14.9,30.22,NW,315,1.1,2.5,39,0.00,,,0.00,WUHU216HW,2013-04-03 03:23:00,
2013-04-02 23:29:00,37.6,14.9,30.23,NW,315,2.9,3.1,39,0.00,,,0.00,WUHU216HW,2013-04-03 03:29:00,
2013-04-02 23:34:00,37.8,15.7,30.23,NW,315,4.5,5.1,40,0.00,,,0.00,WUHU216HW,2013-04-03 03:34:00,
2013-04-02 23:39:00,37.8,15.7,30.22,WNW,293,2.2,5.1,40,0.00,,,0.00,WUHU216HW,2013-04-03 03:39:00,
2013-04-02 23:44:00,37.8,15.7,30.23,NW,315,2.9,4.7,40,0.00,,,0.00,WUHU216HW,2013-04-03 03:44:00,
2013-04-02 23:50:00,37.8,15.7,30.23,NW,315,2.9,4.7,40,0.00,,,0.00,WUHU216HW,2013-04-03 03:50:00,
2013-04-02 23:55:00,37.8,15.7,30.22,NNW,338,4.7,4.7,40,0.00,,,0.00,WUHU216HW,2013-04-03 03:55:00,